Weather History for KLRJ - October, 2011

Change the Weather History Date:

Thursday, October 27, 2011

  Actual Average Record
Temperature  
Mean Temperature 42 °F -  
Max Temperature 55 °F 61 °F 84 °F (1999)
Min Temperature 28 °F 36 °F 15 °F (1997)
Degree Days  
Heating Degree Days 24    
Moisture  
Dew Point 25 °F    
Average Humidity 57    
Maximum Humidity 93    
Minimum Humidity 21    
Precipitation  
Precipitation 0.00 in - - ()
Sea Level Pressure  
Sea Level Pressure 30.10 in    
Wind  
Wind Speed 2 mph (WNW)    
Max Wind Speed 12 mph    
Max Gust Speed 17 mph    
Visibility 10 miles    
Events      
Averages and records for this station are not official NWS values.
T = Trace of Precipitation, MM = Missing Value Source: NWS Daily Summary

Daily Weather History Graph

Daily Weather History Graph

Search for Another Location

Airport or City:

Trip Planner

Search our weather history database for the weather conditions in past years. The results will help you decide how hot, cold, wet, or windy it might be!

Date:

Astronomy

Oct. 27, 2011 Rise Set
Actual Time 7:52 AM CDT 6:24 PM CDT
Civil Twilight 7:23 AM CDT 6:53 PM CDT
Nautical Twilight 6:50 AM CDT 7:26 PM CDT
Astronomical Twilight 6:17 AM CDT 7:59 PM CDT
Moon 8:59 AM CDT (10/27) 6:51 PM CDT (10/27)
Length of Visible Light 11h 30m
Length of Day
10h 32m
New Moon, 1% of the Moon is Illuminated
Oct 27
New Moon
Nov 2
First Quarter
Nov 10
Full
Nov 18
Last Quarter
Nov 25
New

Hourly Weather History & Observations

Time (CDT) Temp. Windchill Dew Point Humidity Pressure Visibility Wind Dir Wind Speed Gust Speed Precip Events Conditions
12:15 AM 39.2 °F - 30.2 °F 70% 30.12 in 10.0 mi Calm Calm - N/A   Clear
12:35 AM 39.2 °F - 30.2 °F 70% 30.12 in 10.0 mi Calm Calm - N/A   Clear
1:15 AM 35.6 °F - 30.2 °F 81% 30.12 in 10.0 mi Calm Calm - N/A   Clear
1:35 AM 37.4 °F - 30.2 °F 75% 30.12 in 10.0 mi Calm Calm - N/A   Clear
1:55 AM 35.6 °F - 30.2 °F 81% 30.12 in 10.0 mi Calm Calm - N/A   Clear
2:15 AM 33.8 °F 30.8 °F 28.4 °F 81% 30.12 in 10.0 mi West 3.5 mph - N/A   Clear
2:35 AM 35.6 °F - 28.4 °F 75% 30.12 in 10.0 mi Calm Calm - N/A   Clear
3:15 AM 33.8 °F - 28.4 °F 81% 30.11 in 10.0 mi Calm Calm - N/A   Clear
3:35 AM 30.2 °F - 26.6 °F 86% 30.10 in 10.0 mi Calm Calm - N/A   Clear
3:55 AM 30.2 °F - 26.6 °F 86% 30.10 in 10.0 mi Calm Calm - N/A   Clear
4:15 AM 28.4 °F - 26.6 °F 93% 30.10 in 10.0 mi Calm Calm - N/A   Clear
4:35 AM 30.2 °F - 28.4 °F 93% 30.10 in 10.0 mi Calm Calm - N/A   Clear
4:55 AM 33.8 °F 28.6 °F 28.4 °F 81% 30.11 in 10.0 mi West 5.8 mph - N/A   Clear
5:15 AM 33.8 °F 30.8 °F 28.4 °F 81% 30.11 in 10.0 mi West 3.5 mph - N/A   Clear
5:35 AM 33.8 °F 29.6 °F 28.4 °F 81% 30.11 in 10.0 mi NW 4.6 mph - N/A   Clear
5:55 AM 33.8 °F - 26.6 °F 75% 30.10 in 10.0 mi Calm Calm - N/A   Clear
6:15 AM 33.8 °F - 26.6 °F 75% 30.11 in 10.0 mi Calm Calm - N/A   Clear
6:35 AM 30.2 °F - 26.6 °F 86% 30.11 in 10.0 mi Calm Calm - N/A   Clear
6:55 AM 33.8 °F - 26.6 °F 75% 30.10 in 10.0 mi Calm Calm - N/A   Clear
7:15 AM 33.8 °F - 26.6 °F 75% 30.10 in 10.0 mi Calm Calm - N/A   Clear
7:35 AM 32.0 °F - 26.6 °F 80% 30.10 in 10.0 mi Calm Calm - N/A   Clear
7:55 AM 30.2 °F - 26.6 °F 86% 30.10 in 10.0 mi Calm Calm - N/A   Clear
8:15 AM 30.2 °F - 24.8 °F 80% 30.10 in 10.0 mi Calm Calm - N/A   Clear
8:35 AM 28.4 °F - 24.8 °F 86% 30.10 in 10.0 mi Calm Calm - N/A   Clear
8:55 AM 30.2 °F - 28.4 °F 93% 30.11 in 10.0 mi Calm Calm - N/A   Clear
9:15 AM 35.6 °F - 28.4 °F 75% 30.11 in 10.0 mi Calm Calm - N/A   Clear
9:35 AM 35.6 °F - 28.4 °F 75% 30.12 in 10.0 mi Calm Calm - N/A   Clear
9:55 AM 37.4 °F - 28.4 °F 70% 30.12 in 10.0 mi Calm Calm - N/A   Clear
10:15 AM 39.2 °F 37.0 °F 30.2 °F 70% 30.12 in 10.0 mi WNW 3.5 mph - N/A   Clear
10:35 AM 41.0 °F - 30.2 °F 65% 30.13 in 10.0 mi Calm Calm - N/A   Clear
10:55 AM 42.8 °F - 30.2 °F 61% 30.13 in 10.0 mi Calm Calm - N/A   Clear
11:15 AM 44.6 °F - 30.2 °F 57% 30.13 in 10.0 mi Calm Calm - N/A   Clear
11:35 AM 46.4 °F 45.2 °F 30.2 °F 53% 30.13 in 10.0 mi WSW 3.5 mph - N/A   Clear
11:55 AM 48.2 °F - 28.4 °F 46% 30.13 in 10.0 mi West 3.5 mph - N/A   Clear
12:15 PM 48.2 °F - 28.4 °F 46% 30.13 in 10.0 mi WSW 5.8 mph - N/A   Clear
12:35 PM 50.0 °F - 26.6 °F 40% 30.13 in 10.0 mi West 3.5 mph - N/A   Clear
12:55 PM 51.8 °F - 24.8 °F 35% 30.12 in 10.0 mi Calm Calm - N/A   Clear
1:15 PM 51.8 °F - 21.2 °F 30% 30.11 in 10.0 mi WNW 5.8 mph - N/A   Clear
1:35 PM 53.6 °F - 21.2 °F 28% 30.11 in 10.0 mi West 8.1 mph - N/A   Clear
1:55 PM 55.4 °F - 21.2 °F 26% 30.10 in 10.0 mi WNW 6.9 mph - N/A   Clear
2:15 PM 55.4 °F - 19.4 °F 25% 30.09 in 10.0 mi WNW 9.2 mph - N/A   Scattered Clouds
2:35 PM 55.4 °F - 19.4 °F 25% 30.09 in 10.0 mi West 11.5 mph 17.3 mph N/A   Scattered Clouds
2:55 PM 55.4 °F - 17.6 °F 23% 30.08 in 10.0 mi NW 8.1 mph - N/A   Scattered Clouds
3:15 PM 55.4 °F - 17.6 °F 23% 30.08 in 10.0 mi West 6.9 mph - N/A   Scattered Clouds
3:35 PM 55.4 °F - 17.6 °F 23% 30.07 in 10.0 mi WNW 10.4 mph 16.1 mph N/A   Clear
3:55 PM 55.4 °F - 17.6 °F 23% 30.07 in 10.0 mi WNW 9.2 mph - N/A   Clear
4:15 PM 55.4 °F - 15.8 °F 21% 30.07 in 10.0 mi WNW 11.5 mph 16.1 mph N/A   Scattered Clouds
4:35 PM 53.6 °F - 15.8 °F 22% 30.07 in 10.0 mi NW 10.4 mph - N/A   Clear
4:55 PM 53.6 °F - 17.6 °F 24% 30.07 in 10.0 mi NW 8.1 mph - N/A   Clear
5:15 PM 53.6 °F - 17.6 °F 24% 30.07 in 10.0 mi NW 5.8 mph - N/A   Clear
5:35 PM 51.8 °F - 17.6 °F 26% 30.07 in 10.0 mi North 3.5 mph - N/A   Clear
5:55 PM 51.8 °F - 17.6 °F 26% 30.07 in 10.0 mi Calm Calm - N/A   Clear
6:15 PM 50.0 °F - 19.4 °F 30% 30.07 in 10.0 mi Calm Calm - N/A   Clear
6:35 PM 48.2 °F - 19.4 °F 32% 30.07 in 10.0 mi Calm Calm - N/A   Clear
6:55 PM 46.4 °F - 21.2 °F 37% 30.07 in 10.0 mi Calm Calm - N/A   Clear
7:15 PM 44.6 °F - 24.8 °F 46% 30.08 in 10.0 mi Calm Calm - N/A   Clear
7:35 PM 42.8 °F - 24.8 °F 49% 30.08 in 10.0 mi Calm Calm - N/A   Clear
8:15 PM 41.0 °F - 24.8 °F 53% 30.09 in 10.0 mi Calm Calm - N/A   Clear
8:35 PM 39.2 °F - 23.0 °F 52% 30.08 in 10.0 mi Calm Calm - N/A   Clear
8:55 PM 41.0 °F - 21.2 °F 45% 30.09 in 10.0 mi Calm Calm - N/A   Clear
9:15 PM 39.2 °F 37.0 °F 23.0 °F 52% 30.09 in 10.0 mi SSW 3.5 mph - N/A   Clear
9:35 PM 39.2 °F 37.0 °F 21.2 °F 49% 30.09 in 10.0 mi South 3.5 mph - N/A   Clear
9:55 PM 33.8 °F - 23.0 °F 65% 30.09 in 10.0 mi Calm Calm - N/A   Clear
10:15 PM 33.8 °F - 23.0 °F 65% 30.10 in 10.0 mi Calm Calm - N/A   Clear
10:35 PM 33.8 °F - 23.0 °F 65% 30.10 in 10.0 mi Calm Calm - N/A   Clear
10:55 PM 33.8 °F - 23.0 °F 65% 30.09 in 10.0 mi Calm Calm - N/A   Clear
11:15 PM 33.8 °F - 23.0 °F 65% 30.09 in 10.0 mi Calm Calm - N/A   Clear
11:55 PM 30.2 °F - 21.2 °F 69% 30.09 in 10.0 mi Calm Calm - N/A   Clear